Powrót do katalogu

BLOCK DM-SL R/B

AktywnyGTO
NORAD 29521·ROCKET BODY· XX

Wystrzelony Oct 30, 2006 z Sea Launch Platform

Loading…

TLE

ŚwieżeSource: Space-Track

Epoka: Sep 14, 2026, 22:11 UTC

1 29521U 06049B   26257.92451409 -.00000135  00000-0  00000-0 0  9994
2 29521   0.9391  27.4107 6935233  97.5329 126.4476  2.18870480158901

Śledź BLOCK DM-SL R/B w czasie rzeczywistym z AllMySat

Download on the App Store